| time (UTC) | temp F | wind direction | speed knots | gust knots | rain 1hr in | rain 24hr in | rain mn in | humidity % | barometer mb |
| 20260505140505 | 54 | 201 | 0.0 | 1.7 | 0.00 | 0.00 | 0.00 | 87 | 1014.9 |
| 20260505124505 | 53 | 0 | 0.0 | 0.0 | 0.00 | 0.00 | 0.00 | 88 | 1014.4 |
| 20260505124006 | 53 | 0 | 0.0 | 0.0 | 0.00 | 0.00 | 0.00 | 88 | 1014.4 |
| 20260505123004 | 53 | 0 | 0.0 | 0.0 | 0.00 | 0.00 | 0.00 | 88 | 1014.4 |
| 20260505122505 | 53 | 0 | 0.0 | 0.0 | 0.00 | 0.00 | 0.00 | 88 | 1014.4 |
| 20260505122005 | 53 | 0 | 0.0 | 0.0 | 0.00 | 0.00 | 0.00 | 88 | 1014.4 |
| 20260505121505 | 53 | 0 | 0.0 | 0.0 | 0.00 | 0.00 | 0.00 | 88 | 1014.4 |
| 20260505121005 | 53 | 0 | 0.0 | 0.0 | 0.00 | 0.00 | 0.00 | 88 | 1014.4 |
| 20260505120505 | 53 | 0 | 0.0 | 0.0 | 0.00 | 0.00 | 0.00 | 88 | 1014.3 |
| 20260505120005 | 53 | 0 | 0.0 | 0.0 | 0.00 | 0.00 | 0.00 | 89 | 1014.4 |
| 20260505115505 | 53 | 0 | 0.0 | 0.0 | 0.00 | 0.00 | 0.00 | 89 | 1014.3 |
| 20260505114005 | 52 | 0 | 0.0 | 0.0 | 0.00 | 0.00 | 0.00 | 89 | 1014.3 |
| 20260505113505 | 52 | 0 | 0.0 | 0.0 | 0.00 | 0.00 | 0.00 | 89 | 1014.3 |
| 20260505113005 | 52 | 0 | 0.0 | 0.0 | 0.00 | 0.00 | 0.00 | 89 | 1014.2 |
| 20260505112505 | 52 | 0 | 0.0 | 0.0 | 0.00 | 0.00 | 0.00 | 90 | 1014.3 |
| 20260505112005 | 52 | 0 | 0.0 | 0.0 | 0.00 | 0.00 | 0.00 | 90 | 1014.3 |
| 20260505111505 | 52 | 0 | 0.0 | 0.0 | 0.00 | 0.00 | 0.00 | 90 | 1014.2 |
| 20260505111005 | 52 | 0 | 0.0 | 0.0 | 0.00 | 0.00 | 0.00 | 90 | 1014.2 |
| 20260505110505 | 52 | 0 | 0.0 | 0.0 | 0.00 | 0.00 | 0.00 | 90 | 1014.2 |
| 20260505102006 | 52 | 0 | 0.0 | 0.0 | 0.00 | 0.00 | 0.00 | 89 | 1013.7 |
| 20260505101505 | 52 | 218 | 0.0 | 1.7 | 0.00 | 0.00 | 0.00 | 89 | 1013.7 |
| 20260505101005 | 52 | 211 | 0.0 | 1.7 | 0.00 | 0.00 | 0.00 | 89 | 1013.7 |
| 20260505100505 | 52 | 206 | 0.0 | 2.6 | 0.00 | 0.00 | 0.00 | 88 | 1013.7 |
| 20260505095505 | 52 | 202 | 0.0 | 0.9 | 0.00 | 0.00 | 0.00 | 88 | 1013.7 |
| 20260505095005 | 52 | 207 | 0.0 | 0.9 | 0.00 | 0.00 | 0.00 | 88 | 1013.7 |
| 20260505094505 | 52 | 216 | 0.0 | 0.9 | 0.00 | 0.00 | 0.00 | 87 | 1013.7 |
| 20260505094005 | 52 | 0 | 0.0 | 0.0 | 0.00 | 0.00 | 0.00 | 87 | 1013.7 |
| 20260505093505 | 52 | 0 | 0.0 | 0.0 | 0.00 | 0.00 | 0.00 | 87 | 1013.7 |
| 20260505093005 | 52 | 0 | 0.0 | 0.0 | 0.00 | 0.00 | 0.00 | 87 | 1013.6 |
| 20260505092505 | 52 | 0 | 0.0 | 0.0 | 0.00 | 0.00 | 0.00 | 86 | 1013.6 |
| 20260505092005 | 52 | 0 | 0.0 | 0.0 | 0.00 | 0.00 | 0.00 | 86 | 1013.5 |
| 20260505091505 | 52 | 0 | 0.0 | 0.0 | 0.00 | 0.00 | 0.00 | 86 | 1013.5 |
| 20260505091005 | 52 | 0 | 0.0 | 0.0 | 0.00 | 0.00 | 0.00 | 86 | 1013.5 |
| 20260505090505 | 53 | 0 | 0.0 | 0.0 | 0.00 | 0.00 | 0.00 | 86 | 1013.5 |
| 20260505090005 | 53 | 0 | 0.0 | 0.0 | 0.00 | 0.00 | 0.00 | 86 | 1013.3 |
| 20260505085505 | 53 | 164 | 0.0 | 1.7 | 0.00 | 0.00 | 0.00 | 86 | 1013.2 |
| 20260505085005 | 53 | 186 | 0.0 | 1.7 | 0.00 | 0.00 | 0.00 | 86 | 1013.2 |
| 20260505084505 | 53 | 209 | 0.0 | 1.7 | 0.00 | 0.00 | 0.00 | 86 | 1013.2 |
| 20260505084005 | 53 | 212 | 0.0 | 2.6 | 0.00 | 0.00 | 0.00 | 85 | 1013.2 |
| 20260505083505 | 53 | 208 | 0.0 | 2.6 | 0.00 | 0.00 | 0.00 | 85 | 1013.3 |
| 20260505083006 | 54 | 183 | 0.0 | 2.6 | 0.00 | 0.00 | 0.00 | 85 | 1013.3 |
| 20260505082005 | 54 | 0 | 0.0 | 0.0 | 0.00 | 0.00 | 0.00 | 84 | 1013.3 |
| 20260505081505 | 54 | 0 | 0.0 | 0.0 | 0.00 | 0.00 | 0.00 | 84 | 1013.2 |
| 20260505080505 | 54 | 0 | 0.0 | 0.0 | 0.00 | 0.00 | 0.00 | 83 | 1013.1 |
| 20260505080005 | 54 | 0 | 0.0 | 0.0 | 0.00 | 0.00 | 0.00 | 83 | 1013.0 |
| 20260505075505 | 55 | 0 | 0.0 | 0.0 | 0.00 | 0.00 | 0.00 | 82 | 1013.0 |
| 20260505073505 | 55 | 237 | 0.0 | 1.7 | 0.00 | 0.00 | 0.00 | 82 | 1012.7 |
| 20260505073005 | 55 | 225 | 0.0 | 1.7 | 0.00 | 0.00 | 0.00 | 82 | 1012.7 |
| 20260505072505 | 56 | 202 | 0.0 | 1.7 | 0.00 | 0.00 | 0.00 | 82 | 1012.7 |
| 20260505072006 | 56 | 211 | 0.9 | 3.5 | 0.00 | 0.00 | 0.00 | 81 | 1012.6 |
| 20260505071505 | 56 | 213 | 0.0 | 3.5 | 0.00 | 0.00 | 0.00 | 81 | 1012.6 |
| 20260505071005 | 56 | 177 | 0.0 | 1.7 | 0.00 | 0.00 | 0.00 | 81 | 1012.5 |
| 20260505070505 | 56 | 200 | 0.0 | 3.5 | 0.00 | 0.00 | 0.00 | 81 | 1012.5 |
| 20260505065505 | 56 | 225 | 0.9 | 4.3 | 0.00 | 0.00 | 0.00 | 81 | 1012.5 |
| 20260505064505 | 57 | 220 | 0.0 | 1.7 | 0.00 | 0.00 | 0.00 | 80 | 1012.3 |
| 20260505064005 | 57 | 220 | 0.0 | 1.7 | 0.00 | 0.00 | 0.00 | 80 | 1012.2 |
| 20260505063505 | 57 | 213 | 0.0 | 3.5 | 0.00 | 0.00 | 0.00 | 79 | 1012.1 |
| 20260505063005 | 57 | 213 | 0.0 | 3.5 | 0.00 | 0.00 | 0.00 | 79 | 1012.1 |
| 20260505062506 | 57 | 246 | 0.0 | 2.6 | 0.00 | 0.00 | 0.00 | 79 | 1012.0 |
| 20260505062005 | 58 | 229 | 0.0 | 2.6 | 0.00 | 0.00 | 0.00 | 78 | 1011.9 |
| 20260505061006 | 58 | 212 | 0.0 | 2.6 | 0.00 | 0.00 | 0.00 | 78 | 1011.9 |
| 20260505060505 | 58 | 212 | 0.0 | 2.6 | 0.00 | 0.00 | 0.00 | 77 | 1011.9 |
| 20260505060005 | 59 | 0 | 0.0 | 0.0 | 0.00 | 0.00 | 0.00 | 77 | 1011.9 |
| 20260505055505 | 59 | 240 | 0.0 | 2.6 | 0.00 | 0.00 | 0.00 | 76 | 1011.9 |
| 20260505055006 | 59 | 236 | 0.0 | 2.6 | 0.00 | 0.00 | 0.00 | 76 | 1011.8 |
| 20260505054005 | 60 | 173 | 0.0 | 1.7 | 0.00 | 0.00 | 0.00 | 75 | 1011.7 |
| 20260505052507 | 61 | 212 | 0.9 | 4.3 | 0.00 | 0.00 | 0.00 | 74 | 1011.6 |
| 20260505052005 | 61 | 217 | 0.9 | 3.5 | 0.00 | 0.00 | 0.00 | 74 | 1011.6 |
| 20260505051005 | 62 | 0 | 0.0 | 0.0 | 0.00 | 0.00 | 0.00 | 73 | 1011.5 |
| 20260505050505 | 62 | 0 | 0.0 | 0.0 | 0.00 | 0.00 | 0.00 | 72 | 1011.4 |
| 20260505041505 | 65 | 227 | 0.0 | 2.6 | 0.00 | 0.00 | 0.00 | 68 | 1010.6 |
| 20260505040505 | 66 | 0 | 0.0 | 0.0 | 0.00 | 0.00 | 0.00 | 67 | 1010.4 |
| 20260505040005 | 66 | 0 | 0.0 | 0.0 | 0.00 | 0.00 | 0.00 | 67 | 1010.3 |
| 20260505035505 | 66 | 232 | 0.0 | 3.5 | 0.00 | 0.00 | 0.00 | 67 | 1010.2 |
| 20260505035005 | 67 | 232 | 0.0 | 3.5 | 0.00 | 0.00 | 0.00 | 66 | 1010.2 |
| 20260505034505 | 67 | 0 | 0.0 | 0.0 | 0.00 | 0.00 | 0.00 | 66 | 1010.1 |
| 20260505034005 | 67 | 0 | 0.0 | 0.0 | 0.00 | 0.00 | 0.00 | 66 | 1009.9 |
| 20260505033505 | 68 | 0 | 0.0 | 0.0 | 0.00 | 0.00 | 0.00 | 66 | 1009.9 |
| 20260505033005 | 68 | 0 | 0.0 | 0.0 | 0.00 | 0.00 | 0.00 | 66 | 1009.8 |
| 20260505032505 | 68 | 0 | 0.0 | 0.0 | 0.00 | 0.00 | 0.00 | 66 | 1009.8 |
| 20260505031505 | 69 | 226 | 0.0 | 1.7 | 0.00 | 0.00 | 0.00 | 65 | 1009.8 |
| 20260505031006 | 69 | 239 | 0.0 | 3.5 | 0.00 | 0.00 | 0.00 | 65 | 1009.7 |
| 20260505030505 | 69 | 241 | 0.0 | 3.5 | 0.00 | 0.00 | 0.00 | 65 | 1009.6 |
| 20260505030005 | 69 | 202 | 0.0 | 3.5 | 0.00 | 0.00 | 0.00 | 64 | 1009.6 |
| 20260505025505 | 70 | 224 | 0.9 | 3.5 | 0.00 | 0.00 | 0.00 | 65 | 1009.5 |
| 20260505025005 | 70 | 229 | 0.9 | 4.3 | 0.00 | 0.00 | 0.00 | 65 | 1009.6 |
| 20260505024505 | 70 | 226 | 1.7 | 5.2 | 0.00 | 0.00 | 0.00 | 64 | 1009.4 |
| 20260505024005 | 70 | 224 | 1.7 | 7.0 | 0.00 | 0.00 | 0.00 | 64 | 1009.4 |
| 20260505023506 | 71 | 228 | 0.9 | 7.0 | 0.00 | 0.00 | 0.00 | 64 | 1009.4 |
| 20260505023006 | 71 | 228 | 0.9 | 5.2 | 0.00 | 0.00 | 0.00 | 65 | 1009.4 |
| 20260505022005 | 71 | 227 | 0.9 | 3.5 | 0.00 | 0.00 | 0.00 | 65 | 1009.3 |
| 20260505021505 | 71 | 210 | 0.9 | 7.8 | 0.00 | 0.00 | 0.00 | 65 | 1009.3 |
| 20260505021006 | 71 | 208 | 1.7 | 7.8 | 0.00 | 0.00 | 0.00 | 64 | 1009.3 |
| 20260505020505 | 71 | 210 | 0.9 | 6.1 | 0.00 | 0.00 | 0.00 | 64 | 1009.3 |
| 20260505020006 | 72 | 216 | 0.9 | 4.3 | 0.00 | 0.00 | 0.00 | 64 | 1009.3 |
| 20260505015505 | 72 | 217 | 0.9 | 5.2 | 0.00 | 0.00 | 0.00 | 63 | 1009.2 |
| 20260505014505 | 72 | 219 | 0.9 | 5.2 | 0.00 | 0.00 | 0.00 | 64 | 1009.2 |
| 20260505014005 | 72 | 212 | 0.9 | 7.0 | 0.00 | 0.00 | 0.00 | 63 | 1009.2 |
| 20260505013505 | 72 | 194 | 0.9 | 7.0 | 0.00 | 0.00 | 0.00 | 63 | 1009.3 |
| 20260505013005 | 72 | 197 | 0.9 | 6.1 | 0.00 | 0.00 | 0.00 | 63 | 1009.4 |
| 20260505012506 | 72 | 213 | 1.7 | 6.1 | 0.00 | 0.00 | 0.00 | 64 | 1009.3 |
| 20260505012005 | 72 | 200 | 0.9 | 6.1 | 0.00 | 0.00 | 0.00 | 63 | 1009.3 |
| 20260505011505 | 72 | 193 | 0.9 | 4.3 | 0.00 | 0.00 | 0.00 | 63 | 1009.4 |
| 20260505010506 | 72 | 204 | 0.9 | 5.2 | 0.00 | 0.00 | 0.00 | 62 | 1009.5 |
| 20260505010005 | 72 | 193 | 0.9 | 3.5 | 0.00 | 0.00 | 0.00 | 62 | 1009.6 |
| 20260505005006 | 72 | 220 | 1.7 | 7.8 | 0.00 | 0.00 | 0.00 | 62 | 1009.7 |
| 20260505004506 | 72 | 204 | 0.9 | 7.8 | 0.00 | 0.00 | 0.00 | 62 | 1009.7 |
| 20260505004005 | 72 | 197 | 1.7 | 5.2 | 0.00 | 0.00 | 0.00 | 61 | 1009.6 |
| 20260505003505 | 73 | 195 | 1.7 | 5.2 | 0.00 | 0.00 | 0.00 | 61 | 1009.6 |
| 20260505002005 | 73 | 207 | 1.7 | 6.1 | 0.00 | 0.00 | 0.00 | 60 | 1009.7 |
| 20260505001505 | 73 | 195 | 1.7 | 8.7 | 0.00 | 0.00 | 0.00 | 60 | 1009.8 |
| 20260505001005 | 73 | 176 | 0.9 | 8.7 | 0.00 | 0.00 | 0.00 | 60 | 1009.8 |
| 20260505000006 | 74 | 218 | 1.7 | 7.0 | 0.00 | 0.00 | 0.00 | 60 | 1009.9 |
| 20260504235506 | 74 | 223 | 1.7 | 7.0 | 0.00 | 0.00 | 0.00 | 59 | 1009.9 |
| 20260504235005 | 74 | 220 | 1.7 | 6.1 | 0.00 | 0.00 | 0.00 | 59 | 1009.9 |
| 20260504234505 | 74 | 222 | 1.7 | 6.1 | 0.00 | 0.00 | 0.00 | 61 | 1010.0 |
| 20260504234005 | 74 | 220 | 0.9 | 6.1 | 0.00 | 0.00 | 0.00 | 59 | 1010.0 |
| 20260504233005 | 74 | 217 | 1.7 | 7.8 | 0.00 | 0.00 | 0.00 | 57 | 1010.1 |
| 20260504232505 | 74 | 193 | 0.9 | 4.3 | 0.00 | 0.00 | 0.00 | 59 | 1010.2 |
| 20260504232005 | 74 | 216 | 0.9 | 6.1 | 0.00 | 0.00 | 0.00 | 58 | 1010.2 |
| 20260504231507 | 74 | 216 | 0.9 | 6.1 | 0.00 | 0.00 | 0.00 | 57 | 1010.2 |
| 20260504231006 | 74 | 212 | 0.9 | 5.2 | 0.00 | 0.00 | 0.00 | 58 | 1010.3 |
| 20260504230505 | 74 | 232 | 1.7 | 6.1 | 0.00 | 0.00 | 0.00 | 59 | 1010.3 |
| 20260504230006 | 74 | 218 | 1.7 | 6.1 | 0.00 | 0.00 | 0.00 | 57 | 1010.4 |
| 20260504225505 | 74 | 210 | 1.7 | 7.8 | 0.00 | 0.00 | 0.00 | 59 | 1010.4 |
| 20260504224505 | 73 | 226 | 1.7 | 7.0 | 0.00 | 0.00 | 0.00 | 59 | 1010.6 |
| 20260504224005 | 74 | 219 | 1.7 | 7.0 | 0.00 | 0.00 | 0.00 | 58 | 1010.6 |
| 20260504223005 | 73 | 212 | 1.7 | 6.1 | 0.00 | 0.00 | 0.00 | 59 | 1010.6 |
| 20260504222508 | 73 | 206 | 1.7 | 6.1 | 0.00 | 0.00 | 0.00 | 62 | 1010.7 |
| 20260504222005 | 73 | 216 | 0.9 | 6.1 | 0.00 | 0.00 | 0.00 | 61 | 1010.7 |
| 20260504221505 | 73 | 232 | 0.9 | 5.2 | 0.00 | 0.00 | 0.00 | 61 | 1010.8 |
| 20260504221006 | 73 | 231 | 1.7 | 6.1 | 0.00 | 0.00 | 0.00 | 62 | 1010.9 |
| 20260504220509 | 72 | 235 | 1.7 | 6.1 | 0.00 | 0.00 | 0.00 | 60 | 1011.0 |
| 20260504220006 | 72 | 229 | 0.9 | 6.1 | 0.00 | 0.00 | 0.00 | 60 | 1011.0 |
| 20260504215505 | 72 | 208 | 0.9 | 4.3 | 0.00 | 0.00 | 0.00 | 63 | 1011.1 |
| 20260504215005 | 72 | 199 | 0.9 | 5.2 | 0.00 | 0.00 | 0.00 | 62 | 1011.2 |
| 20260504214505 | 71 | 102 | 0.0 | 5.2 | 0.00 | 0.00 | 0.00 | 62 | 1011.2 |
| 20260504214005 | 70 | 220 | 0.9 | 5.2 | 0.00 | 0.00 | 0.00 | 63 | 1011.3 |
| 20260504213006 | 70 | 176 | 0.9 | 6.1 | 0.00 | 0.00 | 0.00 | 62 | 1011.4 |
| 20260504212505 | 70 | 196 | 0.9 | 5.2 | 0.00 | 0.00 | 0.00 | 63 | 1011.5 |
| 20260504212006 | 70 | 182 | 0.9 | 5.2 | 0.00 | 0.00 | 0.00 | 63 | 1011.6 |
| 20260504211505 | 69 | 187 | 0.9 | 4.3 | 0.00 | 0.00 | 0.00 | 67 | 1011.6 |
| 20260504211005 | 69 | 211 | 1.7 | 7.0 | 0.00 | 0.00 | 0.00 | 63 | 1011.7 |
| 20260504210505 | 68 | 194 | 1.7 | 8.7 | 0.00 | 0.00 | 0.00 | 63 | 1011.8 |
| 20260504210005 | 68 | 187 | 0.9 | 8.7 | 0.00 | 0.00 | 0.00 | 64 | 1011.9 |
| 20260504205505 | 68 | 214 | 1.7 | 6.1 | 0.00 | 0.00 | 0.00 | 67 | 1012.0 |
| 20260504205005 | 68 | 172 | 1.7 | 6.1 | 0.00 | 0.00 | 0.00 | 64 | 1012.1 |
| 20260504204506 | 68 | 119 | 1.7 | 7.0 | 0.00 | 0.00 | 0.00 | 64 | 1012.1 |
| 20260504204006 | 68 | 118 | 0.9 | 7.0 | 0.00 | 0.00 | 0.00 | 68 | 1012.2 |
| 20260504203505 | 67 | 169 | 0.9 | 6.1 | 0.00 | 0.00 | 0.00 | 66 | 1012.3 |
| 20260504203006 | 67 | 181 | 0.9 | 6.1 | 0.00 | 0.00 | 0.00 | 67 | 1012.3 |
| 20260504202505 | 66 | 194 | 0.9 | 6.1 | 0.00 | 0.00 | 0.00 | 67 | 1012.3 |
| 20260504202005 | 65 | 212 | 1.7 | 7.0 | 0.00 | 0.00 | 0.00 | 69 | 1012.4 |
| 20260504201505 | 66 | 211 | 1.7 | 7.0 | 0.00 | 0.00 | 0.00 | 68 | 1012.5 |
| 20260504201005 | 66 | 202 | 1.7 | 6.1 | 0.00 | 0.00 | 0.00 | 70 | 1012.5 |
| 20260504200506 | 65 | 222 | 1.7 | 6.1 | 0.00 | 0.00 | 0.00 | 70 | 1012.6 |
| 20260504195505 | 65 | 222 | 1.7 | 6.1 | 0.00 | 0.00 | 0.00 | 72 | 1012.7 |
| 20260504195005 | 64 | 228 | 1.7 | 6.1 | 0.00 | 0.00 | 0.00 | 70 | 1012.7 |
| 20260504194506 | 64 | 209 | 1.7 | 5.2 | 0.00 | 0.00 | 0.00 | 70 | 1012.8 |
| 20260504194005 | 63 | 196 | 1.7 | 5.2 | 0.00 | 0.00 | 0.00 | 72 | 1012.8 |
| 20260504193505 | 62 | 210 | 1.7 | 5.2 | 0.00 | 0.00 | 0.00 | 73 | 1012.8 |
| 20260504192505 | 62 | 217 | 0.9 | 4.3 | 0.00 | 0.00 | 0.00 | 75 | 1012.9 |
| 20260504192005 | 62 | 218 | 1.7 | 6.1 | 0.00 | 0.00 | 0.00 | 73 | 1013.0 |
| 20260504191505 | 62 | 217 | 1.7 | 6.1 | 0.00 | 0.00 | 0.00 | 74 | 1012.9 |
| 20260504191005 | 61 | 212 | 0.9 | 4.3 | 0.00 | 0.00 | 0.00 | 76 | 1013.0 |
| 20260504190505 | 61 | 205 | 0.9 | 4.3 | 0.00 | 0.00 | 0.00 | 75 | 1012.9 |
| 20260504185505 | 60 | 219 | 0.9 | 7.0 | 0.00 | 0.00 | 0.00 | 76 | 1013.0 |
| 20260504185005 | 60 | 221 | 0.9 | 7.0 | 0.00 | 0.00 | 0.00 | 76 | 1013.1 |
| 20260504184505 | 60 | 192 | 0.9 | 4.3 | 0.00 | 0.00 | 0.00 | 77 | 1013.2 |
| 20260504184005 | 60 | 198 | 0.9 | 4.3 | 0.00 | 0.00 | 0.00 | 76 | 1013.2 |
| 20260504183005 | 60 | 232 | 0.9 | 5.2 | 0.00 | 0.00 | 0.00 | 78 | 1013.0 |
| 20260504182505 | 60 | 232 | 0.9 | 6.1 | 0.00 | 0.00 | 0.00 | 77 | 1013.1 |
| 20260504182006 | 59 | 226 | 0.9 | 6.1 | 0.00 | 0.00 | 0.00 | 78 | 1013.0 |
| 20260504181505 | 59 | 0 | 0.0 | 0.0 | 0.00 | 0.00 | 0.00 | 78 | 1013.0 |
| 20260504181005 | 59 | 221 | 0.9 | 4.3 | 0.00 | 0.00 | 0.00 | 79 | 1013.0 |
| 20260504180005 | 59 | 202 | 0.0 | 2.6 | 0.00 | 0.00 | 0.00 | 80 | 1013.1 |
| 20260504175505 | 58 | 233 | 0.9 | 7.0 | 0.00 | 0.00 | 0.00 | 80 | 1013.0 |
| 20260504174505 | 58 | 232 | 0.9 | 6.1 | 0.00 | 0.00 | 0.00 | 80 | 1013.0 |
| 20260504174005 | 58 | 221 | 0.9 | 6.1 | 0.00 | 0.00 | 0.00 | 80 | 1013.0 |
| 20260504173006 | 58 | 221 | 1.7 | 7.0 | 0.00 | 0.00 | 0.00 | 81 | 1013.0 |
| 20260504172505 | 57 | 228 | 2.6 | 7.0 | 0.00 | 0.00 | 0.00 | 81 | 1013.1 |
| 20260504172005 | 57 | 234 | 2.6 | 7.0 | 0.00 | 0.00 | 0.00 | 81 | 1013.0 |
| 20260504171506 | 57 | 230 | 1.7 | 7.0 | 0.00 | 0.00 | 0.00 | 81 | 1012.9 |
| 20260504171005 | 57 | 222 | 1.7 | 6.1 | 0.00 | 0.00 | 0.00 | 81 | 1013.0 |
| 20260504170505 | 57 | 216 | 0.9 | 4.3 | 0.00 | 0.00 | 0.00 | 82 | 1012.9 |
| 20260504151006 | 55 | 205 | 0.9 | 5.2 | 0.00 | 0.00 | 0.00 | 85 | 1012.6 |
| 20260504150505 | 55 | 215 | 0.9 | 7.0 | 0.00 | 0.00 | 0.00 | 86 | 1012.6 |